| time (UTC) | temp C | wind direction | speed KPH | gust KPH | rain 1hr cm | rain 24hr cm | rain mn cm | humidity % | barometer mb |
| 20260506003153 | 26 | 192 | 6.4 | 16.1 | 0.00 | 0.00 | 0.00 | 78 | 1006.5 |
| 20260506002653 | 26 | 165 | 6.4 | 22.5 | 0.00 | 0.00 | 0.00 | 78 | 1006.4 |
| 20260506002153 | 26 | 186 | 4.8 | 22.5 | 0.00 | 0.00 | 0.00 | 78 | 1006.4 |
| 20260506001654 | 26 | 190 | 4.8 | 11.3 | 0.00 | 0.00 | 0.00 | 78 | 1006.5 |
| 20260506001152 | 26 | 184 | 4.8 | 17.7 | 0.00 | 0.00 | 0.00 | 77 | 1006.4 |
| 20260506000653 | 26 | 186 | 8.0 | 19.3 | 0.00 | 0.00 | 0.00 | 77 | 1006.4 |
| 20260506000148 | 26 | 165 | 6.4 | 19.3 | 0.00 | 0.00 | 0.00 | 77 | 1006.4 |
| 20260505235649 | 26 | 229 | 6.4 | 16.1 | 0.00 | 0.00 | 0.00 | 77 | 1006.4 |
| 20260505235411 | 27 | 186 | 6.4 | 16.1 | 0.00 | 0.00 | 0.00 | 76 | 1006.3 |
| 20260505234648 | 27 | 219 | 4.8 | 16.1 | 0.00 | 0.00 | 0.00 | 76 | 1006.4 |
| 20260505234149 | 27 | 178 | 3.2 | 11.3 | 0.00 | 0.00 | 0.00 | 76 | 1006.5 |
| 20260505233649 | 27 | 169 | 3.2 | 12.9 | 0.00 | 0.00 | 0.00 | 76 | 1006.4 |
| 20260505233151 | 27 | 194 | 4.8 | 16.1 | 0.00 | 0.00 | 0.00 | 76 | 1006.4 |
| 20260505232651 | 27 | 157 | 4.8 | 16.1 | 0.00 | 0.00 | 0.00 | 76 | 1006.3 |
| 20260505232146 | 27 | 157 | 6.4 | 12.9 | 0.00 | 0.00 | 0.00 | 76 | 1006.4 |
| 20260505231647 | 27 | 227 | 6.4 | 19.3 | 0.00 | 0.00 | 0.00 | 75 | 1006.5 |
| 20260505231149 | 27 | 209 | 6.4 | 19.3 | 0.00 | 0.00 | 0.00 | 75 | 1006.4 |
| 20260505230648 | 27 | 146 | 4.8 | 17.7 | 0.00 | 0.00 | 0.00 | 75 | 1006.4 |
| 20260505230411 | 27 | 196 | 4.8 | 12.9 | 0.00 | 0.00 | 0.00 | 75 | 1006.4 |
| 20260505225920 | 27 | 201 | 6.4 | 16.1 | 0.00 | 0.00 | 0.00 | 75 | 1006.4 |
| 20260505225143 | 27 | 194 | 6.4 | 16.1 | 0.00 | 0.00 | 0.00 | 74 | 1006.5 |
| 20260505224643 | 27 | 178 | 4.8 | 16.1 | 0.00 | 0.00 | 0.00 | 74 | 1006.5 |
| 20260505224144 | 27 | 174 | 6.4 | 16.1 | 0.00 | 0.00 | 0.00 | 75 | 1006.6 |
| 20260505223643 | 27 | 201 | 6.4 | 17.7 | 0.00 | 0.00 | 0.00 | 74 | 1006.5 |
| 20260505223143 | 28 | 188 | 6.4 | 17.7 | 0.00 | 0.00 | 0.00 | 74 | 1006.5 |
| 20260505222641 | 28 | 167 | 8.0 | 17.7 | 0.00 | 0.00 | 0.00 | 74 | 1006.5 |
| 20260505222136 | 28 | 175 | 8.0 | 17.7 | 0.00 | 0.00 | 0.00 | 73 | 1006.5 |
| 20260505221629 | 28 | 185 | 6.4 | 14.5 | 0.00 | 0.00 | 0.00 | 72 | 1006.5 |
| 20260505221128 | 28 | 209 | 6.4 | 16.1 | 0.00 | 0.00 | 0.00 | 73 | 1006.7 |
| 20260505220628 | 28 | 220 | 6.4 | 16.1 | 0.00 | 0.00 | 0.00 | 72 | 1006.7 |
| 20260505220129 | 28 | 176 | 6.4 | 17.7 | 0.00 | 0.00 | 0.00 | 74 | 1006.7 |
| 20260505215628 | 28 | 0 | 8.0 | 17.7 | 0.00 | 0.00 | 0.00 | 74 | 1006.7 |
| 20260505215127 | 28 | 193 | 8.0 | 17.7 | 0.00 | 0.00 | 0.00 | 73 | 1006.7 |
| 20260505214849 | 28 | 238 | 8.0 | 22.5 | 0.00 | 0.00 | 0.00 | 73 | 1006.7 |
| 20260505214126 | 28 | 175 | 8.0 | 22.5 | 0.00 | 0.00 | 0.00 | 73 | 1006.8 |
| 20260505213624 | 28 | 223 | 6.4 | 16.1 | 0.00 | 0.00 | 0.00 | 73 | 1007.0 |
| 20260505213126 | 28 | 233 | 6.4 | 16.1 | 0.00 | 0.00 | 0.00 | 73 | 1007.0 |
| 20260505212624 | 28 | 187 | 4.8 | 14.5 | 0.00 | 0.00 | 0.00 | 73 | 1007.1 |
| 20260505212124 | 28 | 212 | 4.8 | 12.9 | 0.00 | 0.00 | 0.00 | 72 | 1007.2 |
| 20260505211624 | 28 | 203 | 6.4 | 16.1 | 0.00 | 0.00 | 0.00 | 72 | 1007.1 |
| 20260505211124 | 28 | 196 | 8.0 | 19.3 | 0.00 | 0.00 | 0.00 | 71 | 1007.2 |
| 20260505210627 | 28 | 217 | 8.0 | 25.7 | 0.00 | 0.00 | 0.00 | 72 | 1007.2 |
| 20260505210122 | 28 | 194 | 8.0 | 25.7 | 0.00 | 0.00 | 0.00 | 71 | 1007.3 |
| 20260505205622 | 28 | 161 | 8.0 | 20.9 | 0.00 | 0.00 | 0.00 | 71 | 1007.4 |
| 20260505205122 | 28 | 232 | 8.0 | 22.5 | 0.00 | 0.00 | 0.00 | 72 | 1007.5 |
| 20260505204624 | 28 | 201 | 8.0 | 22.5 | 0.00 | 0.00 | 0.00 | 72 | 1007.5 |
| 20260505204122 | 28 | 249 | 6.4 | 17.7 | 0.00 | 0.00 | 0.00 | 72 | 1007.5 |
| 20260505203624 | 28 | 197 | 6.4 | 17.7 | 0.00 | 0.00 | 0.00 | 73 | 1007.8 |
| 20260505203122 | 28 | 198 | 6.4 | 19.3 | 0.00 | 0.00 | 0.00 | 72 | 1007.8 |
| 20260505202623 | 28 | 198 | 8.0 | 19.3 | 0.00 | 0.00 | 0.00 | 73 | 1007.8 |
| 20260505202123 | 28 | 189 | 8.0 | 17.7 | 0.00 | 0.00 | 0.00 | 73 | 1007.9 |
| 20260505201852 | 28 | 209 | 6.4 | 12.9 | 0.00 | 0.00 | 0.00 | 74 | 1008.0 |
| 20260505201123 | 28 | 225 | 6.4 | 12.9 | 0.00 | 0.00 | 0.00 | 74 | 1008.0 |
| 20260505200614 | 28 | 201 | 6.4 | 14.5 | 0.00 | 0.00 | 0.00 | 73 | 1008.1 |
| 20260505200107 | 28 | 203 | 6.4 | 17.7 | 0.00 | 0.00 | 0.00 | 73 | 1008.1 |
| 20260505195559 | 28 | 211 | 4.8 | 17.7 | 0.00 | 0.00 | 0.00 | 73 | 1008.0 |
| 20260505195101 | 28 | 238 | 4.8 | 14.5 | 0.00 | 0.00 | 0.00 | 73 | 1008.0 |
| 20260505194559 | 28 | 175 | 6.4 | 14.5 | 0.00 | 0.00 | 0.00 | 73 | 1008.1 |
| 20260505194328 | 28 | 196 | 6.4 | 14.5 | 0.00 | 0.00 | 0.00 | 73 | 1008.3 |
| 20260505193600 | 27 | 190 | 6.4 | 19.3 | 0.00 | 0.00 | 0.00 | 74 | 1008.4 |
| 20260505193058 | 27 | 192 | 8.0 | 19.3 | 0.00 | 0.00 | 0.00 | 74 | 1008.5 |
| 20260505192559 | 28 | 223 | 8.0 | 17.7 | 0.00 | 0.00 | 0.00 | 74 | 1008.5 |
| 20260505192100 | 28 | 246 | 8.0 | 17.7 | 0.00 | 0.00 | 0.00 | 73 | 1008.5 |
| 20260505191600 | 28 | 218 | 8.0 | 16.1 | 0.00 | 0.00 | 0.00 | 74 | 1008.5 |
| 20260505191055 | 28 | 216 | 6.4 | 14.5 | 0.00 | 0.00 | 0.00 | 74 | 1008.5 |
| 20260505190554 | 27 | 215 | 4.8 | 14.5 | 0.00 | 0.00 | 0.00 | 74 | 1008.5 |
| 20260505190055 | 27 | 200 | 6.4 | 14.5 | 0.00 | 0.00 | 0.00 | 76 | 1008.6 |
| 20260505185553 | 27 | 219 | 6.4 | 17.7 | 0.00 | 0.00 | 0.00 | 76 | 1008.6 |
| 20260505185329 | 27 | 159 | 8.0 | 19.3 | 0.00 | 0.00 | 0.00 | 76 | 1008.6 |
| 20260505184553 | 27 | 188 | 6.4 | 19.3 | 0.00 | 0.00 | 0.00 | 76 | 1008.6 |
| 20260505184320 | 26 | 205 | 4.8 | 12.9 | 0.00 | 0.00 | 0.00 | 77 | 1008.7 |
| 20260505183554 | 26 | 201 | 6.4 | 14.5 | 0.00 | 0.00 | 0.00 | 77 | 1008.7 |
| 20260505183541 | 26 | 215 | 6.4 | 17.7 | 0.00 | 0.00 | 0.00 | 76 | 1008.8 |
| 20260505182555 | 27 | 221 | 6.4 | 17.7 | 0.00 | 0.00 | 0.00 | 76 | 1008.8 |
| 20260505182054 | 27 | 217 | 8.0 | 17.7 | 0.00 | 0.00 | 0.00 | 76 | 1008.9 |
| 20260505181555 | 27 | 194 | 8.0 | 20.9 | 0.00 | 0.00 | 0.00 | 76 | 1008.9 |
| 20260505181327 | 26 | 183 | 6.4 | 20.9 | 0.00 | 0.00 | 0.00 | 76 | 1008.9 |
| 20260505180555 | 26 | 202 | 4.8 | 12.9 | 0.00 | 0.00 | 0.00 | 77 | 1009.0 |
| 20260505180055 | 26 | 165 | 6.4 | 12.9 | 0.00 | 0.00 | 0.00 | 76 | 1009.0 |
| 20260505175549 | 26 | 205 | 6.4 | 12.9 | 0.00 | 0.00 | 0.00 | 77 | 1009.0 |
| 20260505175051 | 26 | 210 | 4.8 | 14.5 | 0.00 | 0.00 | 0.00 | 77 | 1009.1 |
| 20260505174550 | 26 | 221 | 6.4 | 14.5 | 0.00 | 0.00 | 0.00 | 77 | 1009.2 |
| 20260505174543 | 26 | 207 | 6.4 | 11.3 | 0.00 | 0.00 | 0.00 | 78 | 1009.1 |
| 20260505173546 | 26 | 236 | 4.8 | 11.3 | 0.00 | 0.00 | 0.00 | 78 | 1009.2 |
| 20260505173048 | 26 | 182 | 4.8 | 12.9 | 0.00 | 0.00 | 0.00 | 78 | 1009.3 |
| 20260505172545 | 26 | 202 | 6.4 | 16.1 | 0.00 | 0.00 | 0.00 | 78 | 1009.2 |
| 20260505172537 | 26 | 192 | 6.4 | 17.7 | 0.00 | 0.00 | 0.00 | 77 | 1009.2 |
| 20260505171546 | 26 | 224 | 6.4 | 17.7 | 0.00 | 0.00 | 0.00 | 77 | 1009.3 |
| 20260505171541 | 26 | 172 | 6.4 | 16.1 | 0.00 | 0.00 | 0.00 | 77 | 1009.3 |
| 20260505170542 | 26 | 205 | 4.8 | 11.3 | 0.00 | 0.00 | 0.00 | 78 | 1009.4 |
| 20260505170032 | 26 | 197 | 4.8 | 11.3 | 0.00 | 0.00 | 0.00 | 78 | 1009.4 |
| 20260505165528 | 26 | 189 | 4.8 | 8.0 | 0.00 | 0.00 | 0.00 | 78 | 1009.5 |
| 20260505165020 | 26 | 222 | 4.8 | 11.3 | 0.00 | 0.00 | 0.00 | 78 | 1009.4 |
| 20260505164739 | 26 | 253 | 6.4 | 17.7 | 0.00 | 0.00 | 0.00 | 78 | 1009.3 |
| 20260505164004 | 26 | 194 | 6.4 | 17.7 | 0.00 | 0.00 | 0.00 | 77 | 1009.3 |
| 20260505163458 | 26 | 196 | 4.8 | 14.5 | 0.00 | 0.00 | 0.00 | 78 | 1009.3 |
| 20260505162949 | 26 | 213 | 6.4 | 14.5 | 0.00 | 0.00 | 0.00 | 78 | 1009.2 |
| 20260505162441 | 26 | 254 | 6.4 | 14.5 | 0.00 | 0.00 | 0.00 | 78 | 1009.3 |
| 20260505161934 | 26 | 205 | 6.4 | 12.9 | 0.00 | 0.00 | 0.00 | 78 | 1009.3 |
| 20260505161424 | 26 | 179 | 6.4 | 16.1 | 0.00 | 0.00 | 0.00 | 78 | 1009.2 |
| 20260505160919 | 26 | 202 | 6.4 | 16.1 | 0.00 | 0.00 | 0.00 | 78 | 1009.3 |
| 20260505160413 | 26 | 236 | 6.4 | 12.9 | 0.00 | 0.00 | 0.00 | 78 | 1009.2 |
| 20260505160132 | 26 | 178 | 6.4 | 20.9 | 0.00 | 0.00 | 0.00 | 78 | 1009.2 |
| 20260505153328 | 25 | 232 | 6.4 | 12.9 | 0.00 | 0.00 | 0.00 | 79 | 1009.1 |
| 20260505152819 | 25 | 222 | 6.4 | 17.7 | 0.00 | 0.00 | 0.00 | 79 | 1009.1 |
| 20260505152529 | 25 | 220 | 6.4 | 17.7 | 0.00 | 0.00 | 0.00 | 79 | 1009.1 |
| 20260505151806 | 25 | 186 | 8.0 | 22.5 | 0.00 | 0.00 | 0.00 | 79 | 1009.0 |
| 20260505151258 | 25 | 193 | 6.4 | 22.5 | 0.00 | 0.00 | 0.00 | 79 | 1009.0 |
| 20260505150751 | 25 | 214 | 6.4 | 14.5 | 0.00 | 0.00 | 0.00 | 79 | 1009.0 |
| 20260505150244 | 25 | 209 | 6.4 | 14.5 | 0.00 | 0.00 | 0.00 | 79 | 1008.9 |
| 20260505140622 | 24 | 180 | 4.8 | 16.1 | 0.00 | 0.00 | 0.00 | 82 | 1009.0 |
| 20260505140117 | 24 | 202 | 6.4 | 16.1 | 0.00 | 0.00 | 0.00 | 82 | 1009.1 |
| 20260505124932 | 22 | 234 | 3.2 | 9.7 | 0.00 | 0.00 | 0.00 | 85 | 1008.8 |
| 20260505124427 | 22 | 195 | 3.2 | 8.0 | 0.00 | 0.00 | 0.00 | 86 | 1008.5 |
| 20260505123919 | 22 | 181 | 3.2 | 8.0 | 0.00 | 0.00 | 0.00 | 86 | 1008.6 |
| 20260505123411 | 22 | 193 | 3.2 | 8.0 | 0.00 | 0.00 | 0.00 | 86 | 1008.7 |
| 20260505122904 | 22 | 184 | 3.2 | 8.0 | 0.00 | 0.00 | 0.00 | 86 | 1008.5 |
| 20260505122624 | 22 | 172 | 3.2 | 12.9 | 0.00 | 0.00 | 0.00 | 86 | 1008.4 |
| 20260505121902 | 22 | 172 | 1.6 | 12.9 | 0.00 | 0.00 | 0.00 | 85 | 1008.4 |
| 20260505121402 | 22 | 173 | 3.2 | 12.9 | 0.00 | 0.00 | 0.00 | 85 | 1008.1 |
| 20260505120901 | 22 | 170 | 3.2 | 12.9 | 0.00 | 0.00 | 0.00 | 85 | 1007.9 |
| 20260505120402 | 22 | 174 | 3.2 | 8.0 | 0.00 | 0.00 | 0.00 | 85 | 1007.9 |
| 20260505115901 | 22 | 191 | 1.6 | 9.7 | 0.00 | 0.00 | 0.00 | 85 | 1008.0 |
| 20260505115401 | 22 | 192 | 1.6 | 9.7 | 0.00 | 0.00 | 0.00 | 85 | 1008.4 |
| 20260505114900 | 22 | 235 | 1.6 | 6.4 | 0.00 | 0.00 | 0.00 | 85 | 1008.5 |
| 20260505114400 | 22 | 244 | 1.6 | 6.4 | 0.00 | 0.00 | 0.00 | 85 | 1008.6 |
| 20260505113902 | 22 | 169 | 1.6 | 8.0 | 0.00 | 0.00 | 0.00 | 85 | 1008.4 |
| 20260505113359 | 22 | 169 | 1.6 | 8.0 | 0.00 | 0.00 | 0.00 | 85 | 1008.3 |
| 20260505112859 | 22 | 167 | 1.6 | 8.0 | 0.00 | 0.00 | 0.00 | 85 | 1008.3 |
| 20260505112359 | 22 | 196 | 1.6 | 4.8 | 0.00 | 0.00 | 0.00 | 85 | 1008.0 |
| 20260505111858 | 22 | 198 | 1.6 | 6.4 | 0.00 | 0.00 | 0.00 | 85 | 1008.1 |
| 20260505111352 | 22 | 202 | 1.6 | 8.0 | 0.00 | 0.00 | 0.00 | 85 | 1008.0 |
| 20260505110841 | 22 | 181 | 1.6 | 8.0 | 0.00 | 0.00 | 0.00 | 85 | 1008.3 |
| 20260505110341 | 22 | 196 | 1.6 | 4.8 | 0.00 | 0.00 | 0.00 | 85 | 1008.3 |
| 20260505101840 | 22 | 180 | 3.2 | 8.0 | 0.00 | 0.00 | 0.00 | 85 | 1008.1 |
| 20260505101611 | 22 | 205 | 3.2 | 9.7 | 0.00 | 0.00 | 0.00 | 85 | 1008.3 |
| 20260505100839 | 22 | 209 | 3.2 | 9.7 | 0.00 | 0.00 | 0.00 | 85 | 1008.5 |
| 20260505100339 | 22 | 194 | 3.2 | 6.4 | 0.00 | 0.00 | 0.00 | 85 | 1008.5 |
| 20260505095836 | 22 | 192 | 1.6 | 8.0 | 0.00 | 0.00 | 0.00 | 85 | 1008.5 |
| 20260505095605 | 22 | 190 | 1.6 | 8.0 | 0.00 | 0.00 | 0.00 | 85 | 1008.4 |
| 20260505094836 | 22 | 187 | 1.6 | 6.4 | 0.00 | 0.00 | 0.00 | 85 | 1008.1 |
| 20260505094337 | 22 | 191 | 1.6 | 6.4 | 0.00 | 0.00 | 0.00 | 85 | 1008.1 |
| 20260505093836 | 22 | 192 | 1.6 | 6.4 | 0.00 | 0.00 | 0.00 | 85 | 1008.3 |
| 20260505093338 | 22 | 200 | 1.6 | 4.8 | 0.00 | 0.00 | 0.00 | 85 | 1008.4 |
| 20260505093100 | 22 | 175 | 3.2 | 8.0 | 0.00 | 0.00 | 0.00 | 85 | 1008.4 |
| 20260505092330 | 22 | 174 | 3.2 | 8.0 | 0.00 | 0.00 | 0.00 | 84 | 1008.5 |
| 20260505091831 | 22 | 173 | 3.2 | 8.0 | 0.00 | 0.00 | 0.00 | 84 | 1008.7 |
| 20260505091331 | 22 | 188 | 3.2 | 9.7 | 0.00 | 0.00 | 0.00 | 84 | 1008.8 |
| 20260505090832 | 22 | 175 | 3.2 | 9.7 | 0.00 | 0.00 | 0.00 | 84 | 1008.6 |
| 20260505090333 | 22 | 176 | 3.2 | 8.0 | 0.00 | 0.00 | 0.00 | 84 | 1008.6 |
| 20260505085830 | 22 | 188 | 3.2 | 8.0 | 0.00 | 0.00 | 0.00 | 84 | 1008.6 |
| 20260505085332 | 21 | 196 | 3.2 | 6.4 | 0.00 | 0.00 | 0.00 | 84 | 1008.7 |
| 20260505084834 | 21 | 194 | 1.6 | 6.4 | 0.00 | 0.00 | 0.00 | 84 | 1008.8 |
| 20260505084334 | 21 | 194 | 1.6 | 6.4 | 0.00 | 0.00 | 0.00 | 84 | 1008.7 |
| 20260505083834 | 21 | 192 | 1.6 | 6.4 | 0.00 | 0.00 | 0.00 | 84 | 1008.7 |
| 20260505083333 | 21 | 193 | 1.6 | 6.4 | 0.00 | 0.00 | 0.00 | 85 | 1008.7 |
| 20260505082832 | 21 | 186 | 1.6 | 6.4 | 0.00 | 0.00 | 0.00 | 85 | 1008.6 |
| 20260505082332 | 21 | 183 | 1.6 | 6.4 | 0.00 | 0.00 | 0.00 | 85 | 1008.7 |
| 20260505081831 | 21 | 182 | 1.6 | 8.0 | 0.00 | 0.00 | 0.00 | 85 | 1008.7 |
| 20260505081332 | 21 | 192 | 1.6 | 8.0 | 0.00 | 0.00 | 0.00 | 84 | 1008.8 |
| 20260505080832 | 21 | 190 | 1.6 | 4.8 | 0.00 | 0.00 | 0.00 | 84 | 1008.9 |
| 20260505080600 | 21 | 192 | 1.6 | 6.4 | 0.00 | 0.00 | 0.00 | 84 | 1008.9 |
| 20260505075829 | 21 | 192 | 1.6 | 6.4 | 0.00 | 0.00 | 0.00 | 84 | 1008.9 |
| 20260505075328 | 21 | 190 | 1.6 | 8.0 | 0.00 | 0.00 | 0.00 | 84 | 1008.9 |
| 20260505075104 | 21 | 193 | 3.2 | 8.0 | 0.00 | 0.00 | 0.00 | 84 | 1009.0 |
| 20260505074326 | 21 | 170 | 3.2 | 8.0 | 0.00 | 0.00 | 0.00 | 83 | 1009.0 |
| 20260505073825 | 21 | 176 | 3.2 | 9.7 | 0.00 | 0.00 | 0.00 | 83 | 1009.0 |
| 20260505073323 | 21 | 187 | 3.2 | 9.7 | 0.00 | 0.00 | 0.00 | 83 | 1009.0 |
| 20260505072824 | 21 | 202 | 3.2 | 8.0 | 0.00 | 0.00 | 0.00 | 83 | 1009.0 |
| 20260505072326 | 21 | 177 | 4.8 | 9.7 | 0.00 | 0.00 | 0.00 | 83 | 1009.1 |
| 20260505071820 | 21 | 178 | 4.8 | 9.7 | 0.00 | 0.00 | 0.00 | 83 | 1009.2 |
| 20260505071319 | 21 | 217 | 3.2 | 8.0 | 0.00 | 0.00 | 0.00 | 83 | 1009.2 |
| 20260505070819 | 21 | 184 | 1.6 | 9.7 | 0.00 | 0.00 | 0.00 | 83 | 1009.4 |
| 20260505070244 | 21 | 207 | 1.6 | 9.7 | 0.00 | 0.00 | 0.00 | 83 | 1009.4 |
| 20260505065742 | 21 | 231 | 1.6 | 8.0 | 0.00 | 0.00 | 0.00 | 83 | 1009.5 |
| 20260505065239 | 21 | 215 | 3.2 | 8.0 | 0.00 | 0.00 | 0.00 | 83 | 1009.5 |
| 20260505065003 | 21 | 225 | 3.2 | 9.7 | 0.00 | 0.00 | 0.00 | 82 | 1009.5 |
| 20260505064238 | 21 | 201 | 3.2 | 9.7 | 0.00 | 0.00 | 0.00 | 82 | 1009.7 |
| 20260505064011 | 21 | 190 | 3.2 | 6.4 | 0.00 | 0.00 | 0.00 | 82 | 1009.8 |
| 20260505063507 | 21 | 196 | 3.2 | 8.0 | 0.00 | 0.00 | 0.00 | 82 | 1009.8 |
| 20260505062735 | 21 | 198 | 3.2 | 8.0 | 0.00 | 0.00 | 0.00 | 82 | 1009.8 |
| 20260505062236 | 21 | 199 | 3.2 | 8.0 | 0.00 | 0.00 | 0.00 | 82 | 1010.0 |
| 20260505061735 | 21 | 221 | 3.2 | 9.7 | 0.00 | 0.00 | 0.00 | 81 | 1010.2 |
| 20260505061233 | 21 | 202 | 3.2 | 11.3 | 0.00 | 0.00 | 0.00 | 81 | 1010.2 |
| 20260505060732 | 21 | 208 | 4.8 | 11.3 | 0.00 | 0.00 | 0.00 | 81 | 1010.1 |
| 20260505060234 | 21 | 169 | 4.8 | 12.9 | 0.00 | 0.00 | 0.00 | 81 | 1010.1 |
| 20260505055733 | 21 | 196 | 4.8 | 12.9 | 0.00 | 0.00 | 0.00 | 81 | 1010.1 |
| 20260505055233 | 21 | 225 | 3.2 | 11.3 | 0.00 | 0.00 | 0.00 | 80 | 1010.0 |
| 20260505054951 | 21 | 194 | 3.2 | 8.0 | 0.00 | 0.00 | 0.00 | 80 | 1010.0 |
| 20260505054454 | 21 | 174 | 3.2 | 8.0 | 0.00 | 0.00 | 0.00 | 80 | 1010.2 |
| 20260505053732 | 21 | 222 | 3.2 | 8.0 | 0.00 | 0.00 | 0.00 | 80 | 1010.3 |
| 20260505053229 | 21 | 202 | 3.2 | 9.7 | 0.00 | 0.00 | 0.00 | 80 | 1010.5 |
| 20260505052728 | 21 | 202 | 3.2 | 9.7 | 0.00 | 0.00 | 0.00 | 80 | 1010.5 |
| 20260505052227 | 21 | 206 | 3.2 | 8.0 | 0.00 | 0.00 | 0.00 | 80 | 1010.4 |
| 20260505051728 | 21 | 196 | 3.2 | 11.3 | 0.00 | 0.00 | 0.00 | 80 | 1010.5 |
| 20260505051221 | 21 | 210 | 3.2 | 11.3 | 0.00 | 0.00 | 0.00 | 80 | 1010.4 |
| 20260505050716 | 21 | 213 | 3.2 | 9.7 | 0.00 | 0.00 | 0.00 | 80 | 1010.5 |
| 20260505050211 | 21 | 169 | 3.2 | 9.7 | 0.00 | 0.00 | 0.00 | 79 | 1010.4 |
| 20260505041707 | 22 | 175 | 1.6 | 4.8 | 0.00 | 0.00 | 0.00 | 77 | 1010.7 |
| 20260505041206 | 22 | 175 | 1.6 | 8.0 | 0.00 | 0.00 | 0.00 | 77 | 1010.7 |
| 20260505040707 | 22 | 172 | 1.6 | 8.0 | 0.00 | 0.00 | 0.00 | 77 | 1010.7 |
| 20260505040430 | 22 | 177 | 1.6 | 8.0 | 0.00 | 0.00 | 0.00 | 77 | 1010.6 |
| 20260505035708 | 22 | 171 | 1.6 | 8.0 | 0.00 | 0.00 | 0.00 | 77 | 1010.7 |
| 20260505035433 | 22 | 162 | 1.6 | 6.4 | 0.00 | 0.00 | 0.00 | 77 | 1010.8 |
| 20260505034708 | 22 | 159 | 1.6 | 8.0 | 0.00 | 0.00 | 0.00 | 76 | 1010.8 |
| 20260505034203 | 22 | 186 | 1.6 | 8.0 | 0.00 | 0.00 | 0.00 | 76 | 1010.9 |
| 20260505033702 | 22 | 180 | 1.6 | 9.7 | 0.00 | 0.00 | 0.00 | 76 | 1011.0 |
| 20260505033206 | 22 | 179 | 1.6 | 9.7 | 0.00 | 0.00 | 0.00 | 76 | 1010.9 |
| 20260505032705 | 22 | 186 | 1.6 | 8.0 | 0.00 | 0.00 | 0.00 | 75 | 1010.9 |
| 20260505032202 | 22 | 191 | 1.6 | 6.4 | 0.00 | 0.00 | 0.00 | 75 | 1010.9 |
| 20260505031702 | 22 | 181 | 3.2 | 8.0 | 0.00 | 0.00 | 0.00 | 75 | 1010.9 |
| 20260505031202 | 22 | 178 | 3.2 | 9.7 | 0.00 | 0.00 | 0.00 | 74 | 1011.0 |
| 20260505030658 | 22 | 196 | 3.2 | 9.7 | 0.00 | 0.00 | 0.00 | 74 | 1010.9 |
| 20260505030158 | 22 | 176 | 3.2 | 9.7 | 0.00 | 0.00 | 0.00 | 74 | 1010.9 |
| 20260505025920 | 22 | 187 | 3.2 | 8.0 | 0.00 | 0.00 | 0.00 | 74 | 1010.9 |
| 20260505025154 | 23 | 207 | 3.2 | 11.3 | 0.00 | 0.00 | 0.00 | 74 | 1010.9 |
| 20260505024653 | 23 | 175 | 3.2 | 14.5 | 0.00 | 0.00 | 0.00 | 74 | 1010.9 |
| 20260505024151 | 23 | 172 | 4.8 | 17.7 | 0.00 | 0.00 | 0.00 | 74 | 1010.8 |
| 20260505023645 | 23 | 166 | 4.8 | 17.7 | 0.00 | 0.00 | 0.00 | 73 | 1010.8 |
| 20260505023138 | 23 | 178 | 3.2 | 11.3 | 0.00 | 0.00 | 0.00 | 73 | 1010.8 |
| 20260505022628 | 23 | 207 | 3.2 | 12.9 | 0.00 | 0.00 | 0.00 | 73 | 1010.7 |
| 20260505022121 | 23 | 209 | 3.2 | 9.7 | 0.00 | 0.00 | 0.00 | 73 | 1010.7 |
| 20260505021615 | 23 | 215 | 3.2 | 14.5 | 0.00 | 0.00 | 0.00 | 73 | 1010.7 |
| 20260505021109 | 23 | 188 | 4.8 | 14.5 | 0.00 | 0.00 | 0.00 | 73 | 1010.7 |
| 20260505020832 | 23 | 178 | 3.2 | 11.3 | 0.00 | 0.00 | 0.00 | 74 | 1010.6 |
| 20260505020330 | 23 | 138 | 3.2 | 9.7 | 0.00 | 0.00 | 0.00 | 74 | 1010.8 |
| 20260505015608 | 23 | 173 | 3.2 | 9.7 | 0.00 | 0.00 | 0.00 | 74 | 1010.7 |
| 20260505015107 | 22 | 244 | 4.8 | 12.9 | 0.00 | 0.00 | 0.00 | 74 | 1010.6 |
| 20260505014836 | 23 | 194 | 4.8 | 12.9 | 0.00 | 0.00 | 0.00 | 73 | 1010.4 |
| 20260505014108 | 23 | 221 | 4.8 | 11.3 | 0.00 | 0.00 | 0.00 | 73 | 1010.4 |
| 20260505013608 | 23 | 212 | 4.8 | 11.3 | 0.00 | 0.00 | 0.00 | 73 | 1010.4 |
| 20260505013107 | 23 | 201 | 4.8 | 14.5 | 0.00 | 0.00 | 0.00 | 72 | 1010.4 |
| 20260505012605 | 23 | 209 | 4.8 | 14.5 | 0.00 | 0.00 | 0.00 | 72 | 1010.5 |
| 20260505012106 | 23 | 192 | 4.8 | 12.9 | 0.00 | 0.00 | 0.00 | 72 | 1010.4 |
| 20260505011606 | 23 | 174 | 4.8 | 14.5 | 0.00 | 0.00 | 0.00 | 71 | 1010.5 |
| 20260505011104 | 23 | 189 | 6.4 | 14.5 | 0.00 | 0.00 | 0.00 | 71 | 1010.5 |
| 20260505010929 | 23 | 202 | 6.4 | 12.9 | 0.00 | 0.00 | 0.00 | 70 | 1010.4 |
| 20260505010857 | 23 | 202 | 6.4 | 17.7 | 0.00 | 0.00 | 0.00 | 70 | 1010.2 |
| 20260505005555 | 23 | 154 | 6.4 | 17.7 | 0.00 | 0.00 | 0.00 | 70 | 1010.3 |
| 20260505005049 | 23 | 242 | 6.4 | 16.1 | 0.00 | 0.00 | 0.00 | 70 | 1010.4 |
| 20260505004811 | 24 | 162 | 6.4 | 16.1 | 0.00 | 0.00 | 0.00 | 69 | 1010.3 |
| 20260505004541 | 24 | 186 | 6.4 | 16.1 | 0.00 | 0.00 | 0.00 | 69 | 1010.2 |
| 20260505004458 | 24 | 178 | 4.8 | 12.9 | 0.00 | 0.00 | 0.00 | 69 | 1010.2 |